Tracking 20623 objects as of 3-Apr-2020
HD Live streaming from Space Station
objects crossing your sky now

ISO

Track ISO now!
ISO is classified as:


NORAD ID: 23715
Int'l Code: 1995-062A
Perigee: 548.5 km
Apogee: 70,074.6 km
Inclination: 0.9 °
Period: 1,411.5 minutes
Semi major axis: 41682 km
RCS: 3.9811 m2 (large)
Launch date: November 17, 1995
Source: European Space Agency (ESA)
Launch site: FRENCH GUIANA (FRGUI)
aabbcc
Your satellite tracking list
Your tracking list is empty




NASA's NSSDC Master Catalog

Two Line Element Set (TLE):
1 23715U 95062A   20093.51708673 -.00000062 +00000-0 +27356-2 0  9995
2 23715 000.8970 337.1026 8339949 344.5156 002.4385 01.02016664090556
Source of the keplerian elements: AFSPC